Waarnemingen

Advertentie
Mijn weer
Auch, Frankrijk (7622): temperatuur & dauwpunt: 14.05.2019 05:00:00 - 20.05.2019 05:00:00 (CEST)Auch, Frankrijk (7622): temperatuur 5cm: 14.05.2019 05:00:00 - 20.05.2019 05:00:00 (CEST)Auch, Frankrijk (7622): temperatuur -20cm & temperatuur -100cm: 14.05.2019 05:00:00 - 20.05.2019 05:00:00 (CEST)Auch, Frankrijk (7622): windsnelheid & windstoten: 14.05.2019 05:00:00 - 20.05.2019 05:00:00 (CEST)Auch, Frankrijk (7622): windrichting: 14.05.2019 05:00:00 - 20.05.2019 05:00:00 (CEST)Auch, Frankrijk (7622): luchtdruk: 14.05.2019 05:00:00 - 20.05.2019 05:00:00 (CEST)Auch, Frankrijk (7622): zicht: 14.05.2019 05:00:00 - 20.05.2019 05:00:00 (CEST)Auch, Frankrijk (7622): Zonneschijnduur: 14.05.2019 05:00:00 - 20.05.2019 05:00:00 (CEST)Auch, Frankrijk (7622): neerslag: 14.05.2019 05:00:00 - 20.05.2019 05:00:00 (CEST)
Datum & Tijd tt [°C] td [°C] tt 5cm [°C] tt -20cm [°C] tt -100cm [°C] ff [km/u] ff [kn] fx [km/u] fx [kn] dd ppp [hPa] vv [km] sd [min] rr [mm]
20.05.2019 05:00:00 - - - - - - - - - - - - - -
20.05.2019 04:00:00 11,0 9,7 9,8 16,0 15,1 7 4 13 7 WZW 1013,9 17 0 0,0
20.05.2019 03:00:00 10,8 9,7 9,4 16,0 15,1 8 4 14 8 WZW 1014,2 13 0 0,0
20.05.2019 02:00:00 11,3 9,7 10,2 16,1 15,1 7 4 21 11 WZW 1014,5 15 0 0,0
20.05.2019 01:00:00 11,9 10,1 11,2 16,1 15,1 9 5 20 11 W 1014,6 19 0 0,0
20.05.2019 00:00:00 12,0 10,4 11,1 16,2 15,1 9 5 18 10 WZW 1014,5 20 0 0,0
19.05.2019 23:00:00 11,7 10,3 10,9 16,2 15,1 8 4 15 8 ZW 1014,4 20 0 0,2
19.05.2019 22:00:00 11,6 9,8 11,1 16,2 15,1 7 4 14 8 ZW 1013,6 20 0 0,0
19.05.2019 21:00:00 11,9 8,9 11,4 16,2 15,1 9 5 25 13 W 1013,0 20 0 0,0
19.05.2019 20:00:00 12,9 10,8 12,9 16,2 15,1 11 6 25 13 W 1012,5 20 0 0,0
19.05.2019 19:00:00 12,7 10,8 12,2 16,2 15,1 11 6 26 14 WZW 1011,9 20 0 0,0
19.05.2019 18:00:00 12,3 10,7 12,2 16,2 15,1 12 7 23 13 WZW 1012,0 20 0 0,0
19.05.2019 17:00:00 12,9 11,0 12,6 16,1 15,1 10 5 21 11 WZW 1011,8 18 0 0,0
19.05.2019 16:00:00 12,9 10,4 11,6 16,0 15,1 11 6 31 17 W 1011,7 18 0 0,8
19.05.2019 15:00:00 13,4 9,1 13,7 16,0 15,1 16 9 36 19 W 1011,5 20 0 0,0
19.05.2019 14:00:00 13,7 9,1 14,6 15,9 15,1 13 7 30 16 WZW 1011,2 20 0 0,0
19.05.2019 13:00:00 15,6 8,3 17,9 15,8 15,1 12 6 24 13 WNW 1010,6 20 9 0,0
19.05.2019 12:00:00 14,4 8,8 15,2 15,8 15,1 9 5 20 11 W 1010,9 20 2 0,0
19.05.2019 11:00:00 12,8 9,1 13,7 15,8 15,1 9 5 16 9 W 1010,9 20 0 0,0
19.05.2019 10:00:00 11,6 9,3 12,0 15,9 15,1 6 4 14 7 WZW 1010,9 20 0 0,0
19.05.2019 09:00:00 10,7 9,0 10,8 15,9 15,1 4 2 12 6 W 1010,9 20 0 0,0
19.05.2019 08:00:00 10,1 8,5 9,7 16,0 15,1 0 0 7 4 N 1010,6 20 0 0,0
19.05.2019 07:00:00 9,7 8,1 9,2 16,1 15,1 3 1 10 6 ZZW 1010,4 20 0 0,0
19.05.2019 06:00:00 9,7 8,1 9,2 16,2 15,1 6 3 11 6 WZW 1010,2 20 0 0,0
19.05.2019 05:00:00 9,3 7,9 8,3 16,2 15,1 0 0 7 4 N 1009,9 20 0 0,0
19.05.2019 04:00:00 9,2 8,1 8,9 16,3 15,1 5 3 7 4 Z 1010,0 20 0 0,0
19.05.2019 03:00:00 9,1 7,9 8,0 16,5 15,1 2 1 8 4 ZO 1010,2 20 0 0,0
19.05.2019 02:00:00 8,6 7,5 7,7 16,6 15,1 3 1 9 5 Z 1010,5 20 0 0,0
19.05.2019 01:00:00 8,0 7,2 4,3 16,6 15,1 7 4 10 5 Z 1011,0 20 0 0,0
19.05.2019 00:00:00 7,8 6,7 4,8 16,7 15,1 4 2 9 5 ZZO 1011,4 20 0 0,0
18.05.2019 23:00:00 8,9 7,0 6,2 16,7 15,1 4 2 9 5 Z 1011,6 20 0 0,0
18.05.2019 22:00:00 10,2 7,6 8,6 16,8 15,1 6 4 17 9 WZW 1011,3 20 0 0,0
18.05.2019 21:00:00 11,0 8,7 10,2 16,7 15,1 8 4 24 13 WZW 1010,8 20 1 1,2
18.05.2019 20:00:00 12,7 8,2 11,9 16,7 15,1 9 5 28 15 W 1010,1 20 16 0,0
18.05.2019 19:00:00 12,1 9,1 11,4 16,6 15,1 12 7 25 13 WZW 1010,0 20 1 0,2
18.05.2019 18:00:00 12,9 10,1 11,1 16,4 15,1 8 4 42 23 W 1009,7 20 11 0,2
18.05.2019 17:00:00 15,1 7,9 14,6 16,3 15,1 10 6 38 20 W 1008,9 20 8 0,0
18.05.2019 16:00:00 15,1 7,6 17,4 16,2 15,1 17 9 42 23 W 1008,7 20 36 0,0
18.05.2019 15:00:00 14,5 7,8 16,3 16,0 15,1 16 9 43 23 W 1008,8 20 13 0,0
18.05.2019 14:00:00 14,6 7,4 16,3 15,9 15,1 19 10 44 24 W 1008,7 20 38 0,0
18.05.2019 13:00:00 14,2 7,9 16,0 15,8 15,1 20 11 39 21 W 1008,8 20 40 0,0
18.05.2019 12:00:00 13,3 8,1 13,8 15,9 15,1 23 12 43 23 WZW 1009,1 20 35 0,0
18.05.2019 11:00:00 13,0 7,7 12,8 15,9 15,1 23 13 39 21 WZW 1009,0 20 37 0,0
18.05.2019 10:00:00 11,4 7,3 9,8 15,9 15,1 18 10 37 20 WZW 1009,2 20 16 0,0
18.05.2019 09:00:00 10,1 7,3 9,5 16,0 15,1 14 8 26 14 WZW 1009,3 20 0 0,0
18.05.2019 08:00:00 10,0 7,9 9,5 16,1 15,1 13 7 29 15 ZW 1009,5 20 0 0,0
18.05.2019 07:00:00 10,2 8,0 9,7 16,1 15,1 13 7 31 17 WZW 1009,1 20 0 0,0
18.05.2019 06:00:00 10,2 8,3 9,4 16,2 15,1 11 6 29 16 WZW 1008,8 20 0 0,0
18.05.2019 05:00:00 10,3 8,6 9,2 16,3 15,0 11 6 23 12 ZW 1008,6 20 0 0,0
18.05.2019 04:00:00 10,3 8,7 9,6 16,3 15,0 13 7 24 13 WZW 1008,9 20 0 0,2
18.05.2019 03:00:00 10,7 9,1 9,9 16,4 15,1 9 5 23 12 WZW 1009,4 18 0 0,2
18.05.2019 02:00:00 11,2 8,9 10,2 16,5 15,0 10 5 22 12 W 1009,7 20 0 0,0
18.05.2019 01:00:00 11,6 9,2 10,8 16,5 15,0 10 6 22 12 WZW 1009,6 20 0 0,0
18.05.2019 00:00:00 11,9 9,3 10,9 16,6 15,0 10 5 21 12 WZW 1009,5 20 0 0,0
17.05.2019 23:00:00 11,8 9,5 10,3 16,6 15,0 13 7 26 14 WZW 1009,4 20 0 0,0
17.05.2019 22:00:00 11,3 9,2 9,9 16,6 15,0 9 5 16 8 ZW 1008,9 20 0 0,0
17.05.2019 21:00:00 11,2 8,8 9,9 16,6 15,0 5 3 38 20 WZW 1008,3 20 0 0,4
17.05.2019 20:00:00 13,7 10,7 13,5 16,6 15,0 14 8 32 17 WZW 1007,2 20 0 0,0
17.05.2019 19:00:00 13,8 11,0 13,6 16,6 15,0 15 8 29 16 ZW 1006,8 20 0 0,0
17.05.2019 18:00:00 13,9 11,1 13,9 16,6 15,0 16 9 34 18 WZW 1006,8 20 0 0,0
17.05.2019 17:00:00 13,6 10,9 12,5 16,6 15,0 15 8 40 22 WZW 1006,7 20 0 0,0
17.05.2019 16:00:00 12,8 10,5 12,5 16,6 15,0 18 10 34 19 W 1006,8 20 0 0,2
17.05.2019 15:00:00 13,1 11,7 12,5 16,6 15,0 10 5 32 17 W 1006,3 20 0 0,4
17.05.2019 14:00:00 12,7 11,1 12,3 16,7 15,0 10 6 24 13 WNW 1005,9 17 0 1,0
17.05.2019 13:00:00 12,9 10,6 12,5 16,7 15,0 11 6 31 17 NW 1005,0 17 0 0,0
17.05.2019 12:00:00 12,9 10,4 13,9 16,8 15,0 16 9 34 18 NW 1004,2 20 14 0,0
17.05.2019 11:00:00 12,5 10,7 12,6 16,9 15,0 16 9 29 16 NW 1003,6 20 0 0,0
17.05.2019 10:00:00 11,7 10,6 11,3 17,0 15,0 12 7 21 11 NW 1003,9 20 0 0,2
17.05.2019 09:00:00 11,1 10,2 10,5 17,1 15,0 12 6 17 9 NNW 1003,5 18 0 2,4
17.05.2019 08:00:00 10,7 9,9 10,4 17,2 15,0 14 8 21 12 N 1003,1 12 0 6,5
17.05.2019 07:00:00 10,9 9,7 10,4 17,3 15,0 16 9 29 16 NW 1002,8 10 0 3,2
17.05.2019 06:00:00 11,9 10,6 11,4 17,4 15,0 9 5 17 9 NW 1002,6 5 0 0,6
17.05.2019 05:00:00 12,8 11,5 12,3 17,4 14,9 8 5 14 8 NNW 1002,8 16 0 0,2
17.05.2019 04:00:00 12,9 11,3 12,4 17,5 14,9 3 1 15 8 NNW 1003,6 14 0 0,0
17.05.2019 03:00:00 12,9 11,5 12,4 17,6 14,9 7 4 18 10 NW 1003,8 16 0 0,2
17.05.2019 02:00:00 13,2 11,8 12,4 17,7 14,9 5 3 19 10 W 1004,9 17 0 1,2
17.05.2019 01:00:00 13,6 11,8 12,5 17,7 14,9 10 6 24 13 Z 1005,9 13 0 0,8
17.05.2019 00:00:00 14,9 9,9 12,5 17,8 14,9 9 5 20 11 WZW 1006,4 20 0 0,0
16.05.2019 23:00:00 15,8 9,9 13,8 17,8 14,9 9 5 19 10 ZW 1006,5 20 0 0,0
16.05.2019 22:00:00 16,7 8,9 12,8 17,8 14,9 0 0 8 5 N 1006,3 20 0 0,0
16.05.2019 21:00:00 18,2 8,2 14,5 17,7 14,9 5 3 10 5 N 1005,7 20 0 0,0
16.05.2019 20:00:00 20,9 7,1 20,5 17,5 14,9 6 4 11 6 NNW 1005,5 20 7 0,0
16.05.2019 19:00:00 21,6 6,3 21,5 17,3 14,9 6 3 11 6 N 1005,6 20 22 0,0
16.05.2019 18:00:00 22,7 5,6 25,9 17,1 14,9 5 3 14 7 NNW 1006,0 20 14 0,0
16.05.2019 17:00:00 23,2 5,1 26,6 16,9 14,9 3 2 14 8 OZO 1006,6 20 35 0,0
16.05.2019 16:00:00 22,6 5,5 24,7 16,6 14,9 5 3 13 7 NNW 1007,2 20 31 0,0
16.05.2019 15:00:00 21,8 6,5 24,2 16,3 14,8 7 4 19 10 N 1008,1 20 29 0,0
16.05.2019 14:00:00 21,4 4,9 25,5 16,2 14,9 6 3 15 8 N 1008,7 20 35 0,0
16.05.2019 13:00:00 20,7 6,6 27,1 16,0 14,9 5 3 18 10 O 1009,4 20 60 0,0
16.05.2019 12:00:00 18,7 7,8 22,7 16,0 14,9 7 4 16 8 N 1010,2 20 53 0,0
16.05.2019 11:00:00 17,0 8,2 19,4 16,0 14,9 7 4 14 8 N 1010,8 20 50 0,0
16.05.2019 10:00:00 14,4 7,0 14,0 16,1 14,8 8 4 11 6 N 1011,5 20 49 0,0
16.05.2019 09:00:00 12,6 6,6 9,3 16,3 14,9 3 2 7 4 NO 1012,1 20 60 0,0
16.05.2019 08:00:00 6,7 5,3 0,4 16,4 14,9 5 3 7 4 Z 1012,3 20 40 0,0
16.05.2019 07:00:00 3,7 3,0 0,2 16,6 14,8 0 0 3 1 N 1012,7 20 0 0,0
16.05.2019 06:00:00 4,1 3,4 -0,1 16,8 14,9 0 0 3 1 N 1013,0 20 0 0,0
16.05.2019 05:00:00 4,1 2,9 0,3 17,0 14,8 0 0 3 1 N 1013,2 20 0 0,0
16.05.2019 04:00:00 5,0 3,8 0,7 17,2 14,8 0 0 2 1 N 1013,8 20 0 0,0
16.05.2019 03:00:00 5,6 3,9 1,3 17,3 14,8 0 0 3 1 N 1014,4 20 0 0,0
16.05.2019 02:00:00 6,4 4,1 2,0 17,4 14,8 0 0 2 1 N 1014,8 20 0 0,0
16.05.2019 01:00:00 7,4 5,0 2,5 17,6 14,8 0 0 3 1 N 1014,8 20 0 0,0
16.05.2019 00:00:00 8,7 4,7 3,5 17,7 14,8 0 0 3 1 N 1015,0 20 0 0,0
15.05.2019 23:00:00 10,9 5,0 5,2 17,7 14,8 0 0 4 2 N 1015,0 20 0 0,0
15.05.2019 22:00:00 13,6 5,5 6,5 17,7 14,8 0 0 3 2 N 1014,7 20 0 0,0
15.05.2019 21:00:00 19,1 2,9 13,4 17,7 14,8 4 2 15 8 NNW 1014,1 20 40 0,0
15.05.2019 20:00:00 20,9 1,7 22,3 17,5 14,8 10 5 21 12 N 1013,7 20 58 0,0
15.05.2019 19:00:00 22,1 1,1 25,7 17,3 14,8 13 7 26 14 N 1013,4 20 60 0,0
15.05.2019 18:00:00 22,3 2,4 27,1 17,1 14,8 18 10 27 15 N 1013,6 20 60 0,0
15.05.2019 17:00:00 22,1 5,1 28,3 16,8 14,8 12 7 27 15 N 1013,7 20 60 0,0
15.05.2019 16:00:00 21,8 4,4 28,4 16,6 14,8 17 9 29 15 N 1014,2 20 60 0,0
15.05.2019 15:00:00 21,3 3,5 27,8 16,3 14,8 11 6 28 15 N 1014,3 20 60 0,0
15.05.2019 14:00:00 20,7 2,0 27,4 16,1 14,8 10 5 26 14 N 1014,6 20 60 0,0
15.05.2019 13:00:00 20,0 3,2 26,0 16,0 14,8 11 6 20 11 N 1015,0 20 60 0,0
15.05.2019 12:00:00 18,7 5,5 24,1 15,9 14,7 5 3 13 7 NNO 1015,5 20 60 0,0
15.05.2019 11:00:00 16,4 5,9 18,1 16,0 14,8 8 5 14 7 N 1015,7 20 60 0,0
15.05.2019 10:00:00 14,4 6,0 15,1 16,1 14,7 6 4 13 7 N 1016,3 20 60 0,0
15.05.2019 09:00:00 10,5 5,7 7,8 16,2 14,7 2 1 5 3 NNW 1016,4 20 60 0,0
15.05.2019 08:00:00 6,6 6,2 0,5 16,4 14,7 0 0 3 1 N 1016,7 20 42 0,0
15.05.2019 07:00:00 4,1 3,5 -0,3 16,6 14,8 0 0 3 2 N 1016,7 20 0 0,0
15.05.2019 06:00:00 4,2 3,6 -0,1 16,8 14,8 0 0 4 2 N 1016,6 20 0 0,0
15.05.2019 05:00:00 5,0 4,1 0,4 17,0 14,7 0 0 3 2 N 1016,5 20 0 0,0
15.05.2019 04:00:00 5,7 4,8 1,0 17,1 14,7 0 0 4 2 N 1016,2 20 0 0,0
15.05.2019 03:00:00 6,4 5,3 1,9 17,3 14,7 0 0 4 2 N 1016,4 20 0 0,0
15.05.2019 02:00:00 7,4 5,9 2,4 17,4 14,7 0 0 4 2 N 1016,8 20 0 0,0
15.05.2019 01:00:00 8,5 6,8 3,7 17,5 14,7 0 0 3 1 N 1017,2 20 0 0,0
15.05.2019 00:00:00 9,6 7,0 4,9 17,6 14,7 0 0 3 2 N 1017,5 20 0 0,0
14.05.2019 23:00:00 10,9 7,0 5,8 17,7 14,7 2 1 4 2 ZZW 1017,5 20 0 0,0
14.05.2019 22:00:00 13,8 7,8 7,8 17,6 14,7 0 0 5 3 N 1017,2 20 0 0,0
14.05.2019 21:00:00 18,6 7,7 14,0 17,5 14,7 3 2 8 4 ZW 1016,8 20 31 0,0
14.05.2019 20:00:00 21,0 6,1 20,5 17,4 14,7 4 2 13 7 W 1016,7 20 41 0,0
14.05.2019 19:00:00 21,8 6,1 24,8 17,2 14,7 8 4 20 11 N 1016,8 20 60 0,0
14.05.2019 18:00:00 21,7 6,8 26,4 16,9 14,7 15 8 27 14 N 1017,0 20 60 0,0
14.05.2019 17:00:00 22,2 5,6 28,7 16,6 14,7 12 6 21 12 N 1017,3 20 60 0,0
14.05.2019 16:00:00 22,0 5,4 28,8 16,3 14,7 11 6 22 12 NNW 1017,7 20 60 0,0
14.05.2019 15:00:00 21,4 4,9 27,9 16,1 14,7 7 4 23 12 N 1018,2 20 60 0,0
14.05.2019 14:00:00 20,8 6,0 27,4 15,9 14,7 7 4 20 11 N 1018,9 20 60 0,0
14.05.2019 13:00:00 19,7 4,6 25,4 15,7 14,7 7 4 18 10 N 1019,6 20 60 0,0
14.05.2019 12:00:00 18,2 6,4 23,9 15,7 14,7 7 4 15 8 N 1020,1 20 60 0,0
14.05.2019 11:00:00 16,3 6,1 17,0 15,7 14,7 5 3 13 7 N 1020,9 20 60 0,0
14.05.2019 10:00:00 14,6 4,8 14,9 15,8 14,7 4 2 10 5 NNO 1021,6 20 60 0,0
14.05.2019 09:00:00 11,1 6,4 7,7 16,0 14,7 0 0 10 6 N 1022,2 20 60 0,0
14.05.2019 08:00:00 6,6 5,1 1,5 16,1 14,7 8 5 14 8 Z 1022,7 20 41 0,0
14.05.2019 07:00:00 3,4 2,7 -0,3 16,3 14,7 7 4 13 7 ZZW 1023,0 20 0 0,0
14.05.2019 06:00:00 3,9 2,7 -0,1 16,4 14,7 2 1 4 2 Z 1023,0 20 0 0,0
14.05.2019 05:00:00 4,7 3,8 0,2 16,6 14,6 0 0 5 3 N 1023,2 20 0 0,0

tt = temperatuur
td = dauwpunt
tt 5cm = temperatuur 5cm
tt -20cm = temperatuur -20cm
tt -100cm = temperatuur -100cm
ff = windsnelheid
fx = windstoten
dd = windrichting
ppp = luchtdruk
vv = zicht
sd = Zonneschijnduur
rr = neerslag

Weerstations in de omgeving